Beaufort, NC

8:10 AM EDT on October 22, 2019 (GMT -0400)
Smith

Weather History for KMRH - September, 2019

Change the Weather History Date:

Saturday, September 21, 2019

  Actual Average Record
Temperature  
Mean Temperature 68 °F -  
Max Temperature 80 °F 83 °F 91 °F (1957)
Min Temperature 57 °F 66 °F 55 °F (1991)
Cooling Degree Days 3    
Growing Degree Days 18 (Base 50)    
Moisture  
Dew Point 59 °F    
Average Humidity 70    
Maximum Humidity 100    
Minimum Humidity 42    
Precipitation  
Precipitation 0.00 in - - ()
Sea Level Pressure  
Sea Level Pressure 30.28 in    
Wind  
Wind Speed 3 mph (SSW)    
Max Wind Speed 13 mph    
Max Gust Speed -    
Visibility 10 miles    
Events      
Averages and records for this station are not official NWS values.
T = Trace of Precipitation, MM = Missing Value Source: NWS Daily Summary

Daily Weather History Graph

Daily Weather History Graph

Search for Another Location

Airport or City:

Astronomy

Sep. 21, 2019 Rise Set
Actual Time 6:53 AM EDT 7:05 PM EDT
Civil Twilight 6:28 AM EDT 7:30 PM EDT
Nautical Twilight 5:59 AM EDT 7:59 PM EDT
Astronomical Twilight 5:29 AM EDT 8:29 PM EDT
Moon 11:56 PM EDT (9/21) 1:42 PM EDT (9/21)
Length of Visible Light 13h 01m
Length of Day
12h 11m
Waning Gibbous, 55% of the Moon is Illuminated
Sep 21
Waning Gibbous
Sep 21
Last Quarter
Sep 28
New
Oct 5
First Quarter
Oct 13
Full

Hourly Weather History & Observations

Time (EDT) Temp. Dew Point Humidity Pressure Visibility Wind Dir Wind Speed Gust Speed Precip Events Conditions
12:58 AM 63.0 °F 60.1 °F 90% 30.29 in 10.0 mi Calm Calm - N/A   Clear
1:58 AM 62.1 °F 60.1 °F 93% 30.29 in 10.0 mi Calm Calm - N/A   Clear
2:58 AM 61.0 °F 60.1 °F 97% 30.28 in 10.0 mi Calm Calm - N/A   Clear
3:58 AM 57.9 °F 57.9 °F 100% 30.28 in 10.0 mi Calm Calm - N/A   Clear
4:58 AM 62.1 °F 61.0 °F 96% 30.28 in 10.0 mi Calm Calm - N/A   Clear
5:58 AM 61.0 °F 60.1 °F 97% 30.29 in 10.0 mi Calm Calm - N/A   Clear
6:58 AM 59.0 °F 57.9 °F 96% 30.30 in 10.0 mi Calm Calm - N/A   Clear
7:58 AM 64.9 °F 64.0 °F 97% 30.31 in 10.0 mi Calm Calm - N/A   Clear
8:58 AM 73.9 °F 61.0 °F 64% 30.32 in 10.0 mi Calm Calm - N/A   Clear
9:58 AM 77.0 °F 57.9 °F 52% 30.33 in 10.0 mi NNW 3.5 mph - N/A   Clear
10:58 AM 78.1 °F 54.0 °F 43% 30.32 in 10.0 mi NNW 4.6 mph - N/A   Clear
11:58 AM 78.1 °F 55.9 °F 46% 30.31 in 10.0 mi SSW 6.9 mph - N/A   Clear
12:58 PM 79.0 °F 55.0 °F 44% 30.30 in 10.0 mi Calm Calm - N/A   Clear
1:58 PM 79.0 °F 54.0 °F 42% 30.28 in 10.0 mi SSW 9.2 mph - N/A   Clear
2:58 PM 79.0 °F 60.1 °F 52% 30.26 in 10.0 mi South 11.5 mph - N/A   Clear
3:58 PM 79.0 °F 61.0 °F 54% 30.25 in 10.0 mi SSW 12.7 mph - N/A   Clear
4:58 PM 78.1 °F 60.1 °F 54% 30.23 in 10.0 mi SSW 9.2 mph - N/A   Clear
5:58 PM 75.9 °F 61.0 °F 60% 30.23 in 10.0 mi SSW 11.5 mph - N/A   Clear
6:58 PM 72.0 °F 60.1 °F 66% 30.23 in 10.0 mi SSW 8.1 mph - N/A   Clear
7:58 PM 71.1 °F 59.0 °F 66% 30.24 in 10.0 mi SSW 6.9 mph - N/A   Clear
8:58 PM 71.1 °F 60.1 °F 68% 30.25 in 10.0 mi South 6.9 mph - N/A   Clear
9:58 PM 72.0 °F 61.0 °F 68% 30.26 in 10.0 mi South 6.9 mph - N/A   Clear
10:58 PM 72.0 °F 62.1 °F 71% 30.27 in 10.0 mi South 4.6 mph - N/A   Clear
11:58 PM 72.0 °F 63.0 °F 73% 30.26 in 10.0 mi South 4.6 mph - N/A   Clear